sat.trackr.live / text

‹ back to catalog

STARLINK-35906

NORAD 67112 · 2025-299L

PAYLOAD ACTIVE UNKNOWN

§ Identity

Operator
Country
US
Launch date
2025-12-15
Launch site
AFETR
Launch vehicle
Mass (kg)
RCS (m²)

Purposes: comms

External: N2YO · Heavens-Above · Gunter

§ Orbital elements

Epoch: 2026-09-20T02:04:19.821792Z

Period
94.27 min
Inclination
43.0021°
Eccentricity
0.0001691
Mean motion
15.27583079 rev/d
Perigee alt
481.9 km
Apogee alt
484.2 km
Semi-major
6,861.2 km
B*
3.6184e-4
RAAN
151.4045°
Arg perigee
272.8392°
Mean anomaly
87.2266°
Rev number
4,284

§ Raw data

STARLINK-359061 67112U 25299L   26263.08634053  .00009709  00000+0  36184-3 0  99912 67112  43.0021 151.4045 0001691 272.8392  87.2266 15.27583079 42845

JSON: /api/v1/satellites/67112 · /tle

For live sub-satellite position, see the globe view (requires WebGL).

§ Visibility from observer

Set your observer location to see the next 7 days of passes ≥ 10°. The values pass through the URL so the page stays shareable.

No JS? Fill the form by hand. The geolocation button needs JavaScript.